Content
SEND FEEDBACK

Daily
Averages
Monthly
Summary
United Kingdom

GREENHAM, ENGLAND


Home > Europe > United Kingdom > England
Elevation: 410 feet     Latitude: 51 22N     Longitude: 001 16W

WEATHER
 
SELECT A DAY
Number of Records: 64,755;   Date Range: 8/10/96 - 11/26/14
 
SHARE

PRINT THIS DATA

[ ← Previous Day ]
WEATHER ALMANAC - SEPTEMBER 21, 2013
[ Next Day → ]
[ °C ]   °F
Weather ElementAverageHighLow
Temperature58 °F63 °F (3:50 pm)50 °F (12:50 am)
Dewpoint55.2 °F61 °F (9:50 pm)46.4 °F (12:50 am)
Humidity89.9 %100 % (6:50 pm)79 % (12:50 pm)
Barometer30.25 in30.31 in (9:50 pm)30.18 in (2:50 am)
Wind Speed8.1 mph12.7 mph (11:50 am)
Weather ElementAverage
Visibility5.9 mi
Wind DirectionSSW (201.9 °)

Weather ElementTotal
Precipitation---
Heating Degree Days8.5 (Base 65)
Growing Degree Days6.5 (Base 50)
Averaged from 31 records on September 21, 2013
WEATHER CONDITIONS BREAKOUT
WIND DIRECTION BREAKOUT
WEATHER BY HOUR - SEPTEMBER 21, 2013
[ °C ]   °F
Local TimeTemperatureDewpointHumidityBarometerVisibilityWind DirectionWind SpeedGust SpeedPrecipitationEventsConditions
12:50 AM50.0 °F46.4 °F87 %30.21 inWSW (250°)4.6 mphClear
1:50 AM50.0 °F46.4 °F87 %30.21 inSW (230°)6.9 mphClear
2:50 AM50.0 °F46.4 °F87 %30.18 inSW (220°)5.8 mphClear
3:50 AM50.0 °F47.0 °F88 %30.22 in12.0 miSSW (200°)4.6 mphPartly Cloudy
3:50 AM50.0 °F48.2 °F94 %30.18 in6.2 miSSW (200°)4.6 mphMostly Cloudy
4:50 AM50.0 °F48.2 °F94 %30.21 in6.2 miSouth (170°)4.6 mphMostly Cloudy
5:50 AM50.0 °F48.2 °F94 %30.21 in6.2 miSSE (160°)5.8 mphMostly Cloudy
6:50 AM51.8 °F50.0 °F94 %30.21 in6.2 miSouth (170°)5.8 mphMostly Cloudy
6:50 AM52.0 °F49.0 °F87 %30.23 in9.0 miSouth (170°)5.8 mphMostly Cloudy
7:50 AM53.6 °F50.0 °F88 %30.21 inSouth (170°)8.1 mphClear
8:50 AM55.4 °F51.8 °F88 %30.21 in6.2 miSouth (180°)9.2 mphMostly Cloudy
9:50 AM59.0 °F54.0 °F80 %30.25 in9.0 miSouth (190°)11.5 mphOvercast
9:50 AM59.0 °F55.4 °F88 %30.24 in6.2 miSouth (190°)11.5 mphOvercast
10:50 AM59.0 °F55.4 °F88 %30.24 in6.2 miSSW (200°)11.5 mphOvercast
11:50 AM60.8 °F55.4 °F82 %30.24 in6.2 miSSW (200°)12.7 mphOvercast
12:50 PM62.6 °F57.2 °F82 %30.27 in6.2 miSSW (200°)9.2 mphOvercast
12:50 PM62.0 °F57.0 °F79 %30.27 in8.0 miSSW (200°)9.2 mphOvercast
1:50 PM62.6 °F59.0 °F88 %30.24 in6.2 miSSW (210°)10.4 mphOvercast
2:50 PM62.6 °F59.0 °F88 %30.24 in6.2 miSSW (200°)9.2 mphOvercast
3:50 PM63.0 °F60.0 °F86 %30.27 in5.0 miSSW (200°)10.4 mphMist
3:50 PM62.6 °F60.8 °F94 %30.27 in5.0 miSSW (200°)10.4 mphOvercast
4:50 PM62.6 °F60.8 °F94 %30.27 in6.2 miSSW (200°)8.1 mphOvercast
5:50 PM62.6 °F60.8 °F94 %30.27 in6.2 miSSW (210°)6.9 mphMostly Cloudy
6:50 PM60.8 °F60.8 °F100 %30.27 in4.3 miSSW (210°)9.2 mphScattered Clouds
6:50 PM62.0 °F60.0 °F91 %30.28 in4.0 miSSW (210°)9.2 mphMist
7:50 PM62.6 °F60.8 °F94 %30.27 in3.7 miSSW (210°)8.1 mphMostly Cloudy
8:50 PM62.6 °F60.8 °F94 %30.30 in3.7 miSSW (210°)6.9 mphOvercast
9:50 PM62.0 °F61.0 °F95 %30.31 in4.0 miSW (220°)9.2 mphMist
9:50 PM62.6 °F60.8 °F94 %30.30 in3.7 miSW (220°)9.2 mphOvercast
10:50 PM62.6 °F60.8 °F94 %30.30 in3.7 miWSW (240°)6.9 mphOvercast
11:50 PM62.6 °F60.8 °F94 %30.30 in4.3 miSW (220°)5.8 mphMostly Cloudy
Hourly data recorded from EGVO, located miles away from Greenham, England







STORIES FROM OUR PARTNERS